www.pogodaiklimat.ru

Погода и климат >> Архив погоды >> Россия >> Якутия >> Усть-Нера


ПОГОДА в Усть-Нере

  • Прогноз погоды в Усть-Нере
  • Монитор погоды в Усть-Нере

АРХИВ ПОГОДЫ в Усть-Нере

Время (UTC), дата Ветер
(напр.,м/с)
 
Видим.   Явления Облачность Т
(С)
Тd
(С)
f
(%)
Тe
(С)
Тes
(С)
Комфортность P
(гПа)
Po
(гПа)
Тmin
(С)
Tmax
(С)
R
(мм)
R24
(мм)
S
(см)
09 19.03 штиль 0 50 км ясно -28.0 -33.5 59 -28 -28 1025.7 954.4 -19.7
12 19.03 штиль 0 20 км ясно -34.3 -37.8 70 -34 -34 опасность
обморожения
1028.5 955.2
15 19.03 штиль 0 20 км ясно -38.6 -42.0 70 -39 -39 опасность
обморожения
1030.5 955.8
18 19.03 штиль 0 20 км ясно -40.5 -43.9 70 -41 -41 опасность
обморожения
1031.7 956.3
21 19.03 штиль 0 50 км ясно -41.6 -45.0 69 -42 -41 опасность
обморожения
1033.0 957.2 -41.9 24
00 20.03 штиль 0 50 км ясно -31.0 -35.5 64 -31 -27 опасность
обморожения
1029.4 957.0
03 20.03 штиль 0 50 км ясно -23.9 -29.5 60 -24 -18 1026.2 956.0
06 20.03 штиль 0 50 км ясно -18.6 -26.5 50 -19 -16 1023.7 955.1
09 20.03 З 1 50 км ясно -26.2 -31.8 59 -30 -30 1026.3 955.5 -18.3
12 20.03 штиль 0 20 км ясно -33.9 -37.5 70 -34 -34 опасность
обморожения
1029.9 956.6
15 20.03 штиль 0 20 км ясно -37.3 -40.8 70 -37 -37 опасность
обморожения
1031.8 957.3
18 20.03 штиль 0 20 км ясно -39.6 -42.9 71 -40 -40 опасность
обморожения
1032.8 957.6
21 20.03 штиль 0 50 км ясно -41.5 -45.0 69 -42 -41 опасность
обморожения
1033.9 958.0 -41.5 24
00 21.03 штиль 0 50 км ясно -29.7 -34.3 64 -30 -26 1030.1 958.1
03 21.03 Ю 1 50 км ясно -22.3 -29.0 54 -26 -20 1026.6 956.7
06 21.03 ЮВ 1 50 км ясно -18.9 -27.9 45 -22 -20 1024.4 955.6
09 21.03 штиль 0 50 км ясно -26.2 -31.8 59 -26 -26 1026.4 955.6 -18.7
12 21.03 штиль 0 20 км ясно -34.3 -37.8 70 -34 -34 опасность
обморожения
1029.8 956.4
15 21.03 штиль 0 20 км ясно -37.6 -41.2 69 -38 -38 опасность
обморожения
1031.4 956.9
18 21.03 штиль 0 20 км ясно -40.1 -43.4 70 -40 -40 опасность
обморожения
1032.5 957.2
21 21.03 штиль 0 50 км ясно -41.8 -45.0 71 -42 -42 опасность
обморожения
1033.2 957.2 -42.2 24
00 22.03 штиль 0 50 км ясно -30.6 -35.9 60 -31 -26 опасность
обморожения
1029.0 956.7
03 22.03 В 1 50 км ясно -22.4 -30.0 50 -26 -20 1024.5 954.8
06 22.03 В 2 50 км ясно -18.5 -26.4 50 -24 -22 1020.6 952.2
09 22.03 ЮЗ 1 50 км ясно -24.3 -30.8 55 -28 -28 1021.4 951.4 -17.6
12 22.03 штиль 0 20 км 3/0
[Ac trans]
-30.1 -33.9 69 -30 -30 1022.7 951.0
15 22.03 З 1 50 км 4/0
[Ac trans]
-34.0 -37.5 70 -39 -39 опасность
обморожения
1022.7 949.9
18 22.03 З 1 н/о н/о -34.2 -37.8 70 -35 -35 опасность
обморожения
1021.6 948.7
21 22.03 штиль 0 50 км 6/0
[Ac trans Ci fib]
-37.0 -40.4 70 -37 -37 опасность
обморожения
1022.2 948.5 -37.5 24
00 23.03 штиль 0 50 км 10/0
[Ac trans Ci fib]
-27.3 -32.8 59 -27 -25 1017.9 947.3
03 23.03 В 2 50 км 10/0
[Ac trans Ci fib]
-19.5 -27.3 50 -25 -22 1013.1 944.9
06 23.03 ЮВ 2 50 км 8/0
[Ci fib]
-15.6 -23.7 50 -21 -19 1009.9 943.0
09 23.03 штиль 0 50 км ясно -20.7 -26.4 60 -21 -21 1010.9 942.6 -15.2
12 23.03 З 1 20 км ясно -30.0 -33.7 70 -34 -34 опасность
обморожения
1014.1 943.1
15 23.03 штиль 0 20 км ясно -33.7 -37.2 71 -34 -34 опасность
обморожения
1015.3 943.2
18 23.03 штиль 0 20 км ясно -36.3 -39.7 71 -36 -36 опасность
обморожения
1016.9 943.8
21 23.03 З 1 50 км ясно -37.6 -41.2 69 -43 -42 опасность
обморожения
1017.8 944.3 -37.9 24
00 24.03 З 1 50 км ясно -25.7 -31.2 60 -29 -26 1013.9 944.1
03 24.03 В 1 50 км ясно -17.6 -26.7 45 -20 -15 1010.7 943.1
06 24.03 Ю 1 50 км 4/0
[Ci fib]
-14.0 -23.4 45 -16 -14 1008.9 942.4
09 24.03 З 1 50 км 3/0
[Ci fib]
-19.6 -26.4 55 -23 -23 1011.4 943.4 -13.5
12 24.03 З 2 20 км ясно -27.6 -31.4 70 -35 -35 опасность
обморожения
1015.1 944.6
15 24.03 штиль 0 20 км ясно -32.7 -36.5 69 -33 -33 опасность
обморожения
1017.7 945.7
18 24.03 штиль 0 20 км 8/0
[Ci fib]
-31.5 -35.2 70 -32 -32 опасность
обморожения
1017.7 946.0
21 24.03 З 1 50 км 4/0
[Ci fib]
-34.6 -38.1 70 -39 -39 опасность
обморожения
1019.5 946.8 -34.7 24
00 25.03 штиль 0 50 км 10/0
[Cs]
-24.8 -29.5 65 -25 -21 1017.2 947.3
03 25.03 штиль 0 50 км 10/0
[As op Cs]
-17.9 -23.8 60 -18 -14 1014.5 946.6
06 25.03 штиль 0 50 км 10/0
[As op Cs]
-12.8 -21.1 50 -13 -11 1012.5 946.0
09 25.03 В 3 50 км 10/0
[As op Cs]
-12.9 -20.1 55 -19 -19 1012.9 946.4 -11.4
12 25.03 З 1 20 км 3/0
[Ci fib]
-26.6 -29.7 75 -30 -30 1018.1 947.7
15 25.03 штиль 0 20 км ясно -30.0 -33.0 75 -30 -30 1019.6 948.2
18 25.03 штиль 0 20 км ясно -33.0 -36.7 69 -33 -33 опасность
обморожения
1021.2 948.8
21 25.03 штиль 0 50 км 4/0
[Ci fib]
-33.3 -37.0 69 -33 -33 опасность
обморожения
1021.7 949.1 -34.2 24
00 26.03 штиль 0 50 км 6/0
[Ci fib]
-22.8 -28.5 60 -23 -19 1018.2 948.8
03 26.03 ЮВ 4 50 км 8/0
[Ci fib]
-11.4 -21.0 45 -18 -15 1012.7 946.5
06 26.03 В 4 50 км 8/0
[Ci fib]
-10.2 -21.2 40 -17 -16 1010.8 945.2

 

Местоположение метеостанции Усть-Нера (Якутия, Россия): широта 64.53 долгота 143.10 высота над уровнем моря 519 м.

В архиве по умолчанию представлена погода в Усть-Нере за последнюю неделю. Архивные данные за месяц целиком и за предыдущие месяцы, начиная с января 2011 года, Вы можете получить, выбрав интересующий диапазон дат из раскрывающегося списка и нажав кнопку "Ввод!".


*Определитесь, кто Вы:
робот инопланетянин человек

Внимание! Время в таблицах - всемирное. Для получения местного времени необходимо прибавить поправку, которая равна 10 ч.

Смотрите также архив погоды в соседних городах и на ближайших метеорологических станциях:

Погода в Юртах (Якутия, Россия) (82 км)
Погода в Оймяконе (Якутия, Россия) (142 км)
Погода в Делянкире (Якутия, Россия) (144 км)
Погода в Агаякане (Якутия, Россия) (150 км)
Погода в Усть-Моме (Якутия, Россия) (214 км)
Погода в Восточной (Якутия, Россия) (224 км)
Погода в Сусумане (Магаданская область, Россия) (314 км)
Погода в Иэме (Якутия, Россия) (355 км)
Погода в Томпо (Якутия, Россия) (359 км)
Погода в Теплом Ключе (Якутия, Россия) (367 км)

Пояснения к столбцам:

Ветер - указаны скорость ветра в м/с - средняя за 10 мин, порывы в срок и между сроками (в фигурных скобках) и направление, откуда дует ветер: С - северный, СВ - северо-восточный, В - восточный, ЮВ - юго-восточный, Ю - южный, ЮЗ - юго-западный, З - западный, СЗ - северо-западный.
Видимость - горизонтальная дальность видимости в метрах или километрах. При видимости от 1 до 10 км при отсутствии осадков обычно наблюдается дымка, при ухудшении видимости до 1 км и менее - туман. В сухую погоду видимость может ухудшаться дымом, пылью или мглою.
Явления - указаны атмосферные явления, наблюдавшиеся в срок или в последний час перед сроком; фигурными скобками обозначены явления, наблюдавшиеся между сроками (за 1-3 часа до срока); квадратными скобками обозначены град или гололедные отложения с указанием их диаметра в мм.
Облачность - указаны через наклонную черту общая и нижняя облачность в баллах и высота нижней границы облаков в метрах; квадратными скобками обозначены формы облаков: Ci - перистые, Cs - перисто-слоистые, Cc - перисто-кучевые, Ac - высококучевые, As - высокослоистые, Sc - слоисто-кучевые, Ns - слоисто-дождевые, Cu - кучевые, Cb - кучево-дождевые. Подробнее классификацию облаков см. в Атласе облаков (PDF).
T - Температура воздуха - температура, измеренная на высоте 2 м над землей.
Td - Температура точки росы - температура, при понижении до которой содержащийся в воздухе водяной пар достигнет насыщения.
f - Относительная влажность воздуха - влажноcть воздуха, измеренная на высоте 2 м над землей.
Te - Эффективная температура - температура, которую ощущает одетый по сезону человек в тени. Характеристика душности погоды. При расчете учитывается влияние влажности воздуха и скорости ветра на теплоощущения человека.
Tes - Эффективная температура на солнце - температура, которую ощущает человек, с поправкой на солнечный нагрев. Характеристика знойности погоды. Зависит от высоты солнца над горизонтом, облачности и скорости ветра. Ночью, в пасмурную погоду, а также при ветре 12 м/с и более поправка равна нулю.
P - Атмосферное давление - приведенное к уровню моря атмосферное давление.
Po - Атмосферное давление - измеренное на уровне метеостанции атмосферное давление.
Tmin - Минимальная температура - минимум температуры воздуха на высоте 2 м над землей.
Tmax - Максимальная температура - максимум температуры воздуха на высоте 2 м над землей.
R - Количество осадков - Количество выпавших осадков за период времени, мм. При наведении курсора мыши на число - период времени, за который выпало указанное количество осадков.
R24 - Количество осадков - Количество выпавших осадков за 24 часа, мм.
S - Снежный покров - Высота снежного покрова, см. При наведении курсора мыши на число - состояние снежного покрова и степень покрытия местности в баллах.